Flag for Canada Weather past 2 weeks in Rankin Inlet, Nunavut, Canada

Now
21 °F

Clear.


Feels Like: 6 °F
Forecast: 16 / 34 °F
Wind: 21 mph from Northwest

Location: Rankin Inlet

Current Time: May 23, 2015 at 5:31:22 AM

Latest Report: May 23, 2015 at 4:00 AM


Visibility: 15 mi

Pressure: 30.06 "Hg

Humidity: 80%

Dew point: 16 °F

Location of Rankin InletLocation

Historic Weather in Rankin Inlet — Graph

°F

Rankin Inlet temperature yesterday

Maximum temperature yesterday: 37 °F (at 11:00 AM)
Minimum temperature yesterday: 25 °F (at 11:00 PM)
Average temperature yesterday: 33 °F

Past Weeks' High & Low Weather Summary

 TemperatureHumidityPressure
High39 °F (May 15, 6:00 PM)93% (May 11, 12:00 AM)30.43 "Hg (May 11, 12:00 AM)
Low3 °F (May 9, 5:00 AM)48% (May 21, 1:00 PM)29.36 "Hg (May 15, 6:00 PM)
Average24 °F79%30.10 "Hg
* Reported May 8 4:00 AM — May 23 4:00 AM, Rankin Inlet, Weather by CustomWeather, © 2015

Note: Actual official high and low records may vary slightly from our data, if they occured in-between our weather recording intervals... More about our weather records

Advertising

Rankin Inlet weather history for previous 24 hours

 ConditionsComfort  
Time TempWeatherWind HumidityBarometerVisibility
4:00 AM
Sat, May 23
21 °FClear.21 mph80%30.06 "Hg15 mi
3:00 AM21 °FClear.18 mph86%30.06 "Hg15 mi
2:00 AM21 °FClear.21 mph86%30.05 "Hg15 mi
1:00 AM23 °FClear.20 mph80%30.04 "Hg15 mi
12:00 AM23 °FPassing clouds.21 mph80%30.04 "Hg15 mi
11:00 PM
Fri, May 22
25 °FPassing clouds.22 mph80%30.03 "Hg15 mi
10:00 PM27 °FSunny.26 mph80%30.00 "Hg15 mi
9:00 PM28 °FSunny.25 mph80%29.99 "Hg15 mi
8:00 PM30 °FSunny.32 mph75%29.97 "Hg15 mi
7:00 PM34 °FSunny.29 mph70%29.96 "Hg15 mi
6:00 PM34 °FPassing clouds.29 mph70%29.96 "Hg15 mi
5:00 PM36 °FScattered clouds.28 mph70%29.96 "Hg15 mi
4:00 PM36 °FScattered clouds.28 mph70%29.93 "Hg15 mi
3:00 PM36 °FPartly sunny.29 mph70%29.92 "Hg15 mi
2:00 PM36 °FBroken clouds.28 mph70%29.90 "Hg15 mi
1:00 PM36 °FMore clouds than sun.21 mph70%29.89 "Hg15 mi
12:00 PM36 °FBroken clouds.24 mph81%29.86 "Hg15 mi
11:00 AM37 °FMostly cloudy.21 mph81%29.84 "Hg15 mi
10:00 AM36 °FLow clouds.25 mph87%29.81 "Hg15 mi
9:00 AM36 °FLow clouds.24 mph87%29.78 "Hg15 mi
8:00 AM34 °FPassing clouds.26 mph87%29.76 "Hg15 mi
7:00 AM32 °FPassing clouds.26 mph93%29.73 "Hg15 mi
6:00 AM32 °FScattered clouds.16 mph93%29.73 "Hg15 mi
5:00 AM32 °FBroken clouds.18 mph93%29.72 "Hg15 mi
Weather by CustomWeather, © 2015

See weather overviewHow to use our weather pages